This is the latest recevied weather packets stored in our database for station/object LU5DTF-WX. If no packets are shown the sender has not sent any weather packets the latest 10 day(s).
| Time | Temp. | Humidity | Pressure | Rain* | Wind** | Luminosity | Snow |
|---|---|---|---|---|---|---|---|
| 1788046803 | 13.33° C | 76% | 1014.7 hPa | 0 mm | - | - | - |
| 1788046503 | 13.33° C | 76% | 1014.7 hPa | 0 mm | - | - | - |
| 1788046203 | 13.89° C | 75% | 1014.5 hPa | 0 mm | - | - | - |
| 1788045903 | 13.89° C | 74% | 1014.4 hPa | 0 mm | - | - | - |
| 1788045603 | 13.89° C | 73% | 1014.1 hPa | 0 mm | - | - | - |
| 1788045303 | 13.89° C | 73% | 1014.2 hPa | 0 mm | - | - | - |
| 1788045003 | 14.44° C | 71% | 1014.1 hPa | 0 mm | - | - | - |
| 1788044703 | 14.44° C | 72% | 1014 hPa | 0 mm | - | - | - |
| 1788044403 | 14.44° C | 71% | 1014 hPa | 0 mm | - | - | - |
| 1788044103 | 14.44° C | 70% | 1013.9 hPa | 0 mm | - | - | - |
| 1788043803 | 14.44° C | 69% | 1014 hPa | 0 mm | - | - | - |
| 1788043503 | 14.44° C | 68% | 1013.9 hPa | 0 mm | - | - | - |
| 1788043203 | 14.44° C | 67% | 1013.9 hPa | 0 mm | - | - | - |
| 1788042903 | 14.44° C | 68% | 1013.8 hPa | 0 mm | - | - | - |
| 1788042603 | 14.44° C | 67% | 1013.8 hPa | 0 mm | - | - | - |
| 1788042303 | 14.44° C | 67% | 1013.9 hPa | 0 mm | - | - | - |
| 1788042003 | 14.44° C | 69% | 1013.9 hPa | 0 mm | - | - | - |
| 1788041703 | 14.44° C | 69% | 1013.6 hPa | 0 mm | - | - | - |
| 1788041403 | 14.44° C | 68% | 1013.7 hPa | 0 mm | - | - | - |
| 1788041103 | 14.44° C | 69% | 1013.7 hPa | 0 mm | - | - | - |
| 1788040803 | 13.89° C | 72% | 1013.5 hPa | 0 mm | - | - | - |
| 1788040503 | 13.89° C | 73% | 1013.5 hPa | 0 mm | - | - | - |
| 1788040203 | 13.33° C | 75% | 1013.5 hPa | 0 mm | - | - | - |
| 1788039903 | 13.89° C | 74% | 1013.2 hPa | 0 mm | - | - | - |
| 1788039603 | 13.33° C | 73% | 1013.4 hPa | 0 mm | - | - | - |
* Rain latest hour (hover to see other rain measurements)
** Current wind speed in m/s (hover to see current wind gust speed)